(556) Phyllis
ephemeris date magn radius delta ra dec elong phase
Opposition27 May 202613.02.658 AU1.648 AU16h14m-26°44'174.5°2.1°
Today12 Jun 202613.32.668 AU1.685 AU15h59m-25°35'161.6°6.9°
(556) Phyllis - 2026-06-12
astro.vanbuitenen.nl


 
-1 year
-1 month
-1 day
Now
+1 day
+1 month
+1 year

The interactive orbit chart above shows the body's path through the solar system and its position at the given date. Green and blue lines are shown perpendicular to the ecliptic plane: Green if the path is above the ecliptic plane, blue if it is below. (Left-click and drag to rotate the view; Right-click and drag to move the view; Use scroll wheel to zoom in our out.)

The orbital elements of Phyllis are:

            e (Eccentricity)                : 0.1037878
            a (Semimajor axis)              : 2.4643068
            i (Inclination)                 : 5.24937
            Ω (Longitude of ascending node) : 285.97156
            ω (Argument of perihelion)      : 177.24162
            M (Mean anomaly)                : 138.51493
            Epoch                           : 2026 Jun 09

            L (Longitude of perihelion)     : 283.22473
            B (Latitude of perihelion)      : 0.25227
            P (Orbital period in years)     : 3.87            
        

The light curve chart below shows the estimated development of the minor planet's magnitude.


The all-sky chart below shows the path of the minor planet over the same period as the light curve. The current position is marked yellow.





The following chart shows the path of the minor planet in the next few days. The field of view is optimized for (~10x50) binoculars and finderscopes.




Ephemerides:
Date       Time       RA (2000)    DEC (2000)    delta   radius  elong  phase   PA    magn
2026-06-12 00:00 UT   15 59 33.9   -25 35 52     1.685    2.668  161.6    6.9    86   13.3 
2026-06-12 04:44 UT   15 59 23.6   -25 34 57     1.686    2.668  161.4    7.0    87   13.3 
2026-06-13 00:00 UT   15 58 42.1   -25 31 11     1.690    2.669  160.5    7.3    88   13.3 
2026-06-14 00:00 UT   15 57 51.5   -25 26 29     1.695    2.669  159.4    7.7    89   13.3 
2026-06-15 00:00 UT   15 57 02.1   -25 21 47     1.700    2.670  158.3    8.1    90   13.4 
2026-06-16 00:00 UT   15 56 14.0   -25 17 07     1.705    2.671  157.2    8.5    90   13.4 
2026-06-17 00:00 UT   15 55 27.2   -25 12 27     1.711    2.671  156.1    8.9    91   13.4 
2026-06-18 00:00 UT   15 54 41.8   -25 07 48     1.717    2.672  155.0    9.3    92   13.4 
2026-06-19 00:00 UT   15 53 57.7   -25 03 11     1.723    2.673  153.9    9.6    92   13.4 
2026-06-20 00:00 UT   15 53 15.1   -24 58 36     1.729    2.673  152.8   10.0    93   13.5 
2026-06-21 00:00 UT   15 52 33.9   -24 54 03     1.736    2.674  151.7   10.4    94   13.5 
2026-06-22 00:00 UT   15 51 54.2   -24 49 33     1.742    2.674  150.6   10.8    94   13.5 
2026-06-23 00:00 UT   15 51 16.1   -24 45 05     1.749    2.675  149.5   11.1    95   13.5 
2026-06-24 00:00 UT   15 50 39.5   -24 40 40     1.757    2.676  148.4   11.5    95   13.6 
2026-06-25 00:00 UT   15 50 04.4   -24 36 18     1.764    2.676  147.3   11.8    95   13.6 
2026-06-26 00:00 UT   15 49 31.0   -24 31 59     1.772    2.677  146.2   12.2    96   13.6 
2026-06-27 00:00 UT   15 48 59.1   -24 27 45     1.779    2.677  145.1   12.5    96   13.6 
2026-06-28 00:00 UT   15 48 28.9   -24 23 33     1.787    2.678  144.1   12.9    97   13.7 
2026-06-29 00:00 UT   15 48 00.3   -24 19 26     1.796    2.678  143.0   13.2    97   13.7 
2026-06-30 00:00 UT   15 47 33.3   -24 15 23     1.804    2.679  142.0   13.5    97   13.7 
2026-07-01 00:00 UT   15 47 08.0   -24 11 25     1.813    2.680  140.9   13.8    97   13.7 
2026-07-02 00:00 UT   15 46 44.3   -24 07 31     1.822    2.680  139.9   14.2    98   13.7 
2026-07-03 00:00 UT   15 46 22.3   -24 03 42     1.831    2.681  138.8   14.5    98   13.8 
2026-07-04 00:00 UT   15 46 02.0   -23 59 57     1.840    2.681  137.8   14.8    98   13.8 
2026-07-05 00:00 UT   15 45 43.4   -23 56 18     1.849    2.682  136.8   15.0    98   13.8 
2026-07-06 00:00 UT   15 45 26.4   -23 52 43     1.859    2.682  135.7   15.3    99   13.8 
2026-07-07 00:00 UT   15 45 11.1   -23 49 14     1.868    2.683  134.7   15.6    99   13.9 
2026-07-08 00:00 UT   15 44 57.5   -23 45 50     1.878    2.683  133.7   15.9    99   13.9 
2026-07-09 00:00 UT   15 44 45.6   -23 42 32     1.888    2.684  132.7   16.2    99   13.9 
2026-07-10 00:00 UT   15 44 35.3   -23 39 19     1.899    2.685  131.7   16.4    99   13.9 
2026-07-11 00:00 UT   15 44 26.8   -23 36 12     1.909    2.685  130.7   16.7   100   13.9 
2026-07-12 00:00 UT   15 44 19.9   -23 33 10     1.919    2.686  129.7   16.9   100   14.0 


    Terminology:
            
    delta:  distance between minor planet and earth in AU
    radius: distance between minor planet and sun in AU
    magn:   magnitude (brightness) estimate    
    ra:     right ascension in hours (24h = 360deg)
    dec:    declination in degrees
    elong:  elongation in degrees (angle sun-earth-minor planet)    
    phase:  phase angle in degrees (angle sun-minor planet-earth)        
    AU:     Astronomical Unit (mean distance between earth and sun: 149597870.7 km
    

Orbital elements provided by the MPC (Minor Planet Center).
Calculations by a modified version of AAPlus, a C# implementation of the AA+ project by PJ Naughter from the algorithms presented in the book "Astronomical Algorithms" by Jean Meeus.
NGC2000 dso catalog and star labels from VizieR as provided by the Strasbourg astronomical Data Center.
Tycho2 catalog from the ESO archive.